Belmar-Farmingdale, NJ

9:59 PM EST on December 15, 2019 (GMT -0500)
Allaire

Weather History for KBLM - October, 2019

Change the Weather History Date:

Tuesday, October 22, 2019

  Actual Average Record
Temperature  
Mean Temperature 60 °F -  
Max Temperature 64 °F 58 °F 77 °F (2007)
Min Temperature 55 °F 43 °F 33 °F (2018)
Degree Days  
Heating Degree Days 6    
Growing Degree Days 10 (Base 50)    
Moisture  
Dew Point 58 °F    
Average Humidity 95    
Maximum Humidity 100    
Minimum Humidity 75    
Precipitation  
Precipitation 0.22 in - - ()
Sea Level Pressure  
Sea Level Pressure 29.98 in    
Wind  
Wind Speed 8 mph ()    
Max Wind Speed 17 mph    
Max Gust Speed 24 mph    
Visibility 4.7 miles    
Events Rain    
Averages and records for this station are not official NWS values.
T = Trace of Precipitation, MM = Missing Value Source: Averaged Metar Reports

Daily Weather History Graph

Daily Weather History Graph

Search for Another Location

Airport or City:

Astronomy

Oct. 22, 2019 Rise Set
Actual Time 7:14 AM EDT 6:06 PM EDT
Civil Twilight 6:46 AM EDT 6:34 PM EDT
Nautical Twilight 6:15 AM EDT 7:06 PM EDT
Astronomical Twilight 5:43 AM EDT 7:37 PM EDT
Moon 12:20 AM EDT (10/22) 3:14 PM EDT (10/22)
Length of Visible Light 11h 47m
Length of Day
10h 52m
Last Quarter, 37% of the Moon is Illuminated
Oct 22
Last Quarter
Oct 27
New
Nov 4
First Quarter
Nov 12
Full
Nov 19
Last Quarter

Hourly Weather History & Observations

Time (EDT) Temp. Dew Point Humidity Pressure Visibility Wind Dir Wind Speed Gust Speed Precip Events Conditions
12:56 AM 55.9 °F 52.0 °F 87% 30.12 in 10.0 mi ENE 6.9 mph - N/A   Mostly Cloudy
1:56 AM 57.9 °F 51.1 °F 78% 30.11 in 10.0 mi ENE 5.8 mph - N/A   Overcast
2:56 AM 57.9 °F 50.0 °F 75% 30.08 in 10.0 mi East 6.9 mph - N/A   Scattered Clouds
3:56 AM 57.9 °F 51.1 °F 78% 30.08 in 10.0 mi East 5.8 mph - N/A   Mostly Cloudy
4:56 AM 57.0 °F 53.1 °F 87% 30.09 in 10.0 mi Calm Calm - N/A   Mostly Cloudy
5:56 AM 57.9 °F 55.0 °F 90% 30.07 in 10.0 mi East 6.9 mph - N/A   Overcast
6:56 AM 59.0 °F 55.0 °F 87% 30.08 in 10.0 mi ESE 5.8 mph - N/A   Overcast
7:26 AM 57.2 °F 55.4 °F 94% 30.08 in 6.0 mi East 6.9 mph - N/A   Overcast
7:56 AM 57.9 °F 55.9 °F 93% 30.07 in 5.0 mi East 6.9 mph - N/A   Overcast
8:05 AM 57.2 °F 55.4 °F 94% 30.07 in 2.5 mi East 9.2 mph - N/A   Overcast
8:17 AM 57.2 °F 57.2 °F 100% 30.06 in 1.8 mi East 10.4 mph - 0.00 in Rain Light Rain
8:33 AM 57.2 °F 57.2 °F 100% 30.05 in 2.5 mi East 10.4 mph - 0.00 in Rain Light Rain
8:43 AM 57.2 °F 57.2 °F 100% 30.06 in 2.5 mi ESE 9.2 mph - 0.00 in   Overcast
8:52 AM 57.2 °F 57.2 °F 100% 30.06 in 5.0 mi East 11.5 mph 16.1 mph 0.00 in   Overcast
8:56 AM 57.9 °F 57.0 °F 97% 30.06 in 6.0 mi East 10.4 mph - 0.00 in   Overcast
9:28 AM 59.0 °F 57.2 °F 94% 30.07 in 2.0 mi East 9.2 mph - N/A   Overcast
9:34 AM 59.0 °F 57.2 °F 94% 30.07 in 3.0 mi East 8.1 mph - N/A   Overcast
9:56 AM 59.0 °F 57.9 °F 96% 30.08 in 3.0 mi East 5.8 mph - N/A   Overcast
10:15 AM 59.0 °F 57.2 °F 94% 30.06 in 1.8 mi East 9.2 mph - 0.00 in Rain Light Rain
10:42 AM 59.0 °F 57.2 °F 94% 30.05 in 2.0 mi East 10.4 mph - 0.00 in Rain Light Rain
10:54 AM 59.0 °F 57.2 °F 94% 30.05 in 5.0 mi East 11.5 mph - 0.00 in Rain Light Rain
10:56 AM 59.0 °F 57.9 °F 96% 30.05 in 5.0 mi East 10.4 mph - 0.00 in Rain Light Rain
11:11 AM 59.0 °F 57.2 °F 94% 30.05 in 1.8 mi East 9.2 mph - 0.01 in Rain Light Rain
11:23 AM 59.0 °F 57.2 °F 94% 30.05 in 3.0 mi East 9.2 mph - 0.01 in Rain Light Rain
11:56 AM 60.1 °F 59.0 °F 96% 30.04 in 4.0 mi East 10.4 mph - 0.01 in   Overcast
12:56 PM 61.0 °F 59.0 °F 93% 30.00 in 10.0 mi East 12.7 mph 18.4 mph N/A   Overcast
1:56 PM 61.0 °F 60.1 °F 97% 29.95 in 10.0 mi East 17.3 mph 21.9 mph N/A   Overcast
2:40 PM 60.8 °F 60.8 °F 100% 29.93 in 2.5 mi East 11.5 mph - 0.00 in Rain Light Rain
2:49 PM 60.8 °F 60.8 °F 100% 29.92 in 5.0 mi East 16.1 mph 24.2 mph 0.00 in Rain Light Rain
2:56 PM 61.0 °F 60.1 °F 97% 29.91 in 8.0 mi East 12.7 mph - 0.00 in   Overcast
3:56 PM 61.0 °F 60.1 °F 97% 29.91 in 3.0 mi ESE 12.7 mph 21.9 mph N/A   Overcast
4:24 PM 60.8 °F 60.8 °F 100% 29.90 in 1.8 mi ESE 10.4 mph - N/A   Overcast
4:35 PM 60.8 °F 60.8 °F 100% 29.91 in 1.0 mi SE 8.1 mph - 0.00 in Rain Light Rain
4:43 PM 60.8 °F 60.8 °F 100% 29.90 in 1.2 mi ESE 10.4 mph - 0.00 in Rain Light Rain
4:56 PM 61.0 °F 61.0 °F 100% 29.90 in 1.0 mi ESE 12.7 mph 19.6 mph 0.00 in Rain Light Rain
5:10 PM 60.8 °F 60.8 °F 100% 29.90 in 1.5 mi ESE 13.8 mph - 0.00 in Rain Light Rain
5:25 PM 60.8 °F 60.8 °F 100% 29.89 in 2.0 mi ESE 10.4 mph - 0.00 in Rain Light Rain
5:35 PM 60.8 °F 60.8 °F 100% 29.88 in 1.8 mi ESE 11.5 mph 19.6 mph 0.00 in Rain Light Rain
5:44 PM 60.8 °F 60.8 °F 100% 29.88 in 2.5 mi ESE 11.5 mph - 0.00 in Rain Light Rain
5:56 PM 62.1 °F 61.0 °F 96% 29.88 in 1.2 mi ESE 12.7 mph - 0.00 in Rain Light Rain
6:22 PM 60.8 °F 60.8 °F 100% 29.87 in 3.0 mi ESE 12.7 mph - 0.00 in Rain Light Rain
6:56 PM 62.1 °F 61.0 °F 96% 29.87 in 4.0 mi ESE 10.4 mph - 0.00 in Rain Light Rain
7:56 PM 62.1 °F 61.0 °F 96% 29.89 in 6.0 mi East 6.9 mph - 0.04 in Rain Light Rain
8:56 PM 62.1 °F 62.1 °F 100% 29.85 in 4.0 mi ESE 10.4 mph - 0.04 in Rain Light Rain
9:56 PM 63.0 °F 63.0 °F 100% 29.84 in 5.0 mi SE 11.5 mph 19.6 mph 0.02 in Rain Light Rain
10:27 PM 64.4 °F 62.6 °F 94% 29.83 in 8.0 mi SE 10.4 mph 18.4 mph 0.03 in Rain Light Rain
10:53 PM 64.4 °F 62.6 °F 94% 29.82 in 4.0 mi SE 10.4 mph - 0.04 in Rain Light Rain
10:56 PM 64.0 °F 63.0 °F 96% 29.82 in 4.0 mi SE 6.9 mph - 0.04 in Rain Light Rain
11:56 PM 64.0 °F 63.0 °F 96% 29.78 in 6.0 mi SSE 6.9 mph - 0.07 in Rain Light Rain